FW8809 Weather Reports


Display with metric or nautical units.
time (UTC)temp
F
wind
direction
speed
MPH
gust
MPH
rain 1hr
in
rain 24hr
in
rain mn
in
humidity
%
barometer
mb
20260503005902 50 40 1.0 3.0 0.00 0.00 0.00 94 1011.2
20260503005402 50 51 1.0 3.0 0.00 0.00 0.00 94 1011.5
20260503004902 50 51 1.0 3.0 0.00 0.00 0.00 94 1011.5
20260503004402 50 45 1.0 2.0 0.00 0.00 0.00 94 1011.5
20260503003902 50 57 1.0 5.0 0.00 0.00 0.00 94 1011.5
20260503003402 51 43 1.0 10.0 0.00 0.00 0.00 94 1011.5
20260503002902 51 29 1.0 10.0 0.00 0.00 0.00 94 1011.5
20260503002402 51 29 1.0 10.0 0.00 0.00 0.00 94 1011.5
20260503001902 51 29 1.0 10.0 0.00 0.00 0.00 94 1011.5
20260503001402 51 29 1.0 10.0 0.00 0.00 0.00 94 1011.5
20260503000902 51 29 1.0 10.0 0.00 0.00 0.00 94 1011.5
20260503000402 51 29 1.0 10.0 0.00 0.00 0.00 94 1011.5
20260502235902 51 29 1.0 10.0 0.00 0.00 0.00 94 1011.5
20260502235402 51 29 1.0 10.0 0.00 0.00 0.00 94 1011.5
20260502234902 51 29 1.0 10.0 0.00 0.00 0.00 94 1011.5
20260502234402 51 29 1.0 10.0 0.00 0.00 0.00 94 1011.5
20260502233403 51 29 1.0 10.0 0.00 0.00 0.00 94 1011.5
20260502232402 51 29 1.0 10.0 0.00 0.00 0.00 94 1011.5
20260502231902 51 29 1.0 10.0 0.00 0.00 0.00 94 1011.5
20260502231402 51 29 1.0 10.0 0.00 0.00 0.00 94 1011.5
20260502230902 51 29 1.0 10.0 0.00 0.00 0.00 94 1011.5
20260502230402 51 29 1.0 10.0 0.00 0.00 0.00 94 1011.5
20260502225902 51 27 1.0 10.0 0.00 0.00 0.00 94 1011.5
20260502225402 51 34 1.0 10.0 0.00 0.00 0.00 94 1011.5
20260502224902 51 17 1.0 10.0 0.00 0.00 0.00 94 1011.5
20260502224402 51 46 0.0 10.0 0.00 0.00 0.00 94 1011.5
20260502223902 51 26 0.0 10.0 0.00 0.00 0.00 94 1011.5
20260502223402 51 61 1.0 10.0 0.00 0.00 0.00 95 1011.5
20260502222402 51 25 1.0 10.0 0.00 0.00 0.00 95 1011.5
20260502221902 51 103 1.0 10.0 0.00 0.00 0.00 95 1011.9
20260502221402 51 105 1.0 10.0 0.00 0.00 0.00 95 1011.9
20260502220402 51 102 1.0 10.0 0.00 0.00 0.00 95 1011.9
20260502215902 51 103 1.0 10.0 0.00 0.00 0.00 95 1011.9
20260502215402 51 111 1.0 10.0 0.00 0.00 0.00 95 1011.9
20260502214902 51 82 2.0 10.0 0.00 0.00 0.00 95 1011.9
20260502214402 53 114 5.0 10.0 0.00 0.00 0.00 90 1011.9
20260502213403 53 114 5.0 10.0 0.00 0.00 0.00 90 1011.9
20260502212402 53 114 5.0 10.0 0.00 0.00 0.00 90 1011.9
20260502211402 53 114 5.0 10.0 0.00 0.00 0.00 90 1011.9
20260502210903 53 114 5.0 10.0 0.00 0.00 0.00 90 1011.9
20260502210403 53 114 5.0 10.0 0.00 0.00 0.00 90 1011.9
20260502205902 53 114 5.0 10.0 0.00 0.00 0.00 90 1011.9
20260502205403 53 114 5.0 10.0 0.00 0.00 0.00 90 1011.9
20260502204902 53 114 5.0 10.0 0.00 0.00 0.00 90 1011.9
20260502204403 53 114 5.0 10.0 0.00 0.00 0.00 90 1011.9
20260502203903 53 114 5.0 10.0 0.00 0.00 0.00 90 1011.9
20260502203402 53 114 5.0 10.0 0.00 0.00 0.00 90 1011.9
20260502202902 53 114 5.0 10.0 0.00 0.00 0.00 90 1011.9
20260502201902 53 114 5.0 10.0 0.00 0.00 0.00 90 1011.9
20260502201403 53 114 5.0 10.0 0.00 0.00 0.00 90 1011.9
20260502200403 53 114 5.0 10.0 0.00 0.00 0.00 90 1011.9
20260502194903 53 114 5.0 10.0 0.00 0.00 0.00 90 1011.9
20260502193903 53 114 5.0 10.0 0.00 0.00 0.00 90 1011.9
20260502193403 53 114 5.0 10.0 0.00 0.00 0.00 90 1011.9
20260502192903 53 114 5.0 10.0 0.00 0.00 0.00 90 1011.9
20260502192403 53 114 5.0 10.0 0.00 0.00 0.00 90 1011.9
20260502191903 53 114 5.0 10.0 0.00 0.00 0.00 90 1011.9
20260502191403 53 114 5.0 10.0 0.00 0.00 0.00 90 1011.9
20260502190903 53 113 5.0 10.0 0.00 0.00 0.00 90 1011.9
20260502190403 53 115 5.0 10.0 0.00 0.00 0.00 90 1011.9
20260502185903 53 110 5.0 10.0 0.00 0.00 0.00 90 1011.9
20260502185403 53 119 5.0 10.0 0.00 0.00 0.00 90 1011.9
20260502184903 53 102 5.0 12.0 0.00 0.00 0.00 90 1011.9
20260502184403 53 144 3.0 12.0 0.00 0.00 0.00 88 1012.2
20260502183903 53 144 3.0 12.0 0.00 0.00 0.00 88 1012.2
20260502183403 53 144 3.0 12.0 0.00 0.00 0.00 88 1012.2
20260502182903 53 144 3.0 12.0 0.00 0.00 0.00 88 1012.2
20260502182403 53 144 3.0 12.0 0.00 0.00 0.00 88 1012.2
20260502181903 53 144 3.0 12.0 0.00 0.00 0.00 88 1012.2
20260502181403 53 144 3.0 12.0 0.00 0.00 0.00 88 1012.2
20260502180903 53 144 3.0 12.0 0.00 0.00 0.00 88 1012.2
20260502163903 53 142 3.0 12.0 0.00 0.00 0.00 88 1012.2
20260502163403 53 149 3.0 12.0 0.00 0.00 0.00 88 1012.2
20260502162903 53 134 3.0 12.0 0.00 0.00 0.00 88 1012.2
20260502162403 53 163 3.0 12.0 0.00 0.00 0.00 88 1012.2
20260502161904 53 113 5.0 12.0 0.00 0.00 0.00 89 1012.2
20260502160403 54 117 5.0 12.0 0.00 0.00 0.00 89 1012.3
20260502151904 54 101 5.0 10.0 0.00 0.00 0.00 89 1012.9
20260502130403 53 106 6.0 15.0 0.00 0.00 0.00 89 1013.9
20260502123403 55 115 6.0 13.0 0.00 0.00 0.00 85 1014.6
20260502122903 55 115 6.0 13.0 0.00 0.00 0.00 85 1014.6
20260502122403 55 115 6.0 13.0 0.00 0.00 0.00 85 1014.6
20260502121403 55 115 6.0 13.0 0.00 0.00 0.00 85 1014.6
20260502115904 55 115 6.0 13.0 0.00 0.00 0.00 85 1014.6
20260502115403 55 116 6.0 13.0 0.00 0.00 0.00 85 1014.6
20260502114903 55 114 6.0 13.0 0.00 0.00 0.00 85 1014.6
20260502114403 55 117 6.0 13.0 0.00 0.00 0.00 85 1014.6
20260502113901 54 109 3.0 12.0 0.00 0.00 0.00 87 1014.9
20260502112901 54 109 3.0 12.0 0.00 0.00 0.00 87 1014.9
20260502112401 54 109 3.0 12.0 0.00 0.00 0.00 87 1014.9
20260502111901 54 109 3.0 12.0 0.00 0.00 0.00 87 1014.9
20260502111400 54 109 3.0 12.0 0.00 0.00 0.00 87 1014.9
20260502110901 54 109 3.0 12.0 0.00 0.00 0.00 87 1014.9
20260502110401 54 109 3.0 12.0 0.00 0.00 0.00 87 1014.9
20260502105901 54 109 3.0 12.0 0.00 0.00 0.00 87 1014.9
20260502105401 54 109 3.0 12.0 0.00 0.00 0.00 87 1014.9
20260502104901 54 109 3.0 12.0 0.00 0.00 0.00 87 1014.9
20260502104401 54 109 3.0 12.0 0.00 0.00 0.00 87 1014.9
20260502103901 54 109 3.0 12.0 0.00 0.00 0.00 87 1014.9
20260502103401 54 109 3.0 12.0 0.00 0.00 0.00 87 1014.9
20260502102901 54 109 3.0 12.0 0.00 0.00 0.00 87 1014.9
20260502102401 54 109 3.0 12.0 0.00 0.00 0.00 87 1014.9
20260502101901 54 109 3.0 12.0 0.00 0.00 0.00 87 1014.9
20260502101401 54 109 3.0 12.0 0.00 0.00 0.00 87 1014.9
20260502100401 54 109 3.0 12.0 0.00 0.00 0.00 87 1014.9
20260502091401 54 109 3.0 12.0 0.00 0.00 0.00 87 1014.9
20260502090901 54 109 3.0 12.0 0.00 0.00 0.00 87 1014.9
20260502090401 54 109 3.0 12.0 0.00 0.00 0.00 87 1014.9
20260502070901 50 25 1.0 12.0 0.00 0.00 0.00 92 1015.2
20260502070401 50 25 1.0 12.0 0.00 0.00 0.00 92 1015.2
20260502064902 50 25 1.0 12.0 0.00 0.00 0.00 92 1015.2
20260502063901 50 25 1.0 12.0 0.00 0.00 0.00 92 1015.2
20260502063401 50 25 1.0 12.0 0.00 0.00 0.00 92 1015.2
20260502062901 50 25 1.0 12.0 0.00 0.00 0.00 92 1015.2
20260502062402 50 25 1.0 12.0 0.00 0.00 0.00 92 1015.2
20260502061902 50 26 1.0 12.0 0.00 0.00 0.00 92 1015.2
20260502061402 50 24 1.0 12.0 0.00 0.00 0.00 92 1015.2
20260502060901 50 29 1.0 12.0 0.00 0.00 0.00 92 1015.2
20260502060401 50 18 1.0 12.0 0.00 0.00 0.00 92 1015.2
20260502055901 50 38 1.0 12.0 0.00 0.00 0.00 92 1015.2
20260502055402 49 357 1.0 12.0 0.00 0.00 0.00 91 1015.6
20260502054901 49 357 1.0 12.0 0.00 0.00 0.00 91 1015.6
20260502054402 49 357 1.0 12.0 0.00 0.00 0.00 91 1015.6
20260502053902 49 357 1.0 12.0 0.00 0.00 0.00 91 1015.6
20260502053402 49 357 1.0 12.0 0.00 0.00 0.00 91 1015.6
20260502052402 49 357 1.0 12.0 0.00 0.00 0.00 91 1015.6
20260502051901 49 357 1.0 12.0 0.00 0.00 0.00 91 1015.6
20260502051402 49 357 1.0 12.0 0.00 0.00 0.00 91 1015.6
20260502050401 49 357 1.0 12.0 0.00 0.00 0.00 91 1015.6
20260502045902 49 357 1.0 12.0 0.00 0.00 0.00 91 1015.6
20260502045402 49 357 1.0 12.0 0.00 0.00 0.00 91 1015.6
20260502044902 49 357 1.0 12.0 0.00 0.00 0.00 91 1015.6
20260502044402 49 357 1.0 12.0 0.00 0.00 0.00 91 1015.6
20260502043902 49 357 1.0 12.0 0.00 0.00 0.00 91 1015.6
20260502043401 49 357 1.0 12.0 0.00 0.00 0.00 91 1015.6
20260502042902 49 357 1.0 12.0 0.00 0.00 0.00 91 1015.6
20260502042402 49 357 1.0 12.0 0.00 0.00 0.00 91 1015.6
20260502041902 49 357 1.0 12.0 0.00 0.00 0.00 91 1015.6
20260502041402 49 357 1.0 12.0 0.00 0.00 0.00 91 1015.6
20260502040901 49 357 1.0 12.0 0.00 0.00 0.00 91 1015.6
20260502040401 49 357 1.0 12.0 0.00 0.00 0.00 91 1015.6
20260502035901 49 357 1.0 12.0 0.00 0.00 0.00 91 1015.6
20260502035402 49 356 1.0 12.0 0.00 0.00 0.00 91 1015.6
20260502034902 49 358 1.0 12.0 0.00 0.00 0.00 91 1015.6
20260502034402 50 355 2.0 12.0 0.00 0.00 0.00 91 1015.9
20260502033901 50 358 2.0 12.0 0.00 0.00 0.00 91 1015.9
20260502033402 50 353 2.0 12.0 0.00 0.00 0.00 91 1015.9
20260502032902 50 6 1.0 12.0 0.00 0.00 0.00 90 1016.9
20260502031902 50 6 1.0 12.0 0.00 0.00 0.00 90 1016.9
20260502031402 50 6 1.0 12.0 0.00 0.00 0.00 90 1016.9
20260502030901 50 6 1.0 12.0 0.00 0.00 0.00 90 1016.9
20260502030401 50 6 1.0 12.0 0.00 0.00 0.00 90 1016.9
20260502025901 50 6 1.0 12.0 0.00 0.00 0.00 90 1016.9
20260502025402 50 6 1.0 12.0 0.00 0.00 0.00 90 1016.9
20260502024902 50 6 1.0 12.0 0.00 0.00 0.00 90 1016.9
20260502024402 50 6 1.0 12.0 0.00 0.00 0.00 90 1016.9
20260502023902 50 6 1.0 12.0 0.00 0.00 0.00 90 1016.9
20260502023402 50 6 1.0 12.0 0.00 0.00 0.00 90 1016.9
20260502022902 50 6 1.0 12.0 0.00 0.00 0.00 90 1016.9
20260502022402 50 5 1.0 12.0 0.00 0.00 0.00 90 1016.9
20260502021902 50 6 1.0 12.0 0.00 0.00 0.00 90 1016.9
20260502021402 50 5 1.0 12.0 0.00 0.00 0.00 90 1016.9
20260502020902 50 6 1.0 12.0 0.00 0.00 0.00 90 1016.9
20260502020402 50 6 1.0 12.0 0.00 0.00 0.00 90 1016.9
20260502015902 50 5 1.0 12.0 0.00 0.00 0.00 90 1016.9
20260502015402 50 6 1.0 12.0 0.00 0.00 0.00 90 1016.9
20260502014902 50 5 1.0 12.0 0.00 0.00 0.00 90 1016.9
20260502013902 50 5 1.0 12.0 0.00 0.00 0.00 90 1016.9
20260502013402 50 6 1.0 12.0 0.00 0.00 0.00 90 1016.9
20260502012902 50 5 1.0 12.0 0.00 0.00 0.00 90 1016.9
20260502012402 50 6 1.0 12.0 0.00 0.00 0.00 90 1016.9
20260502010902 51 6 1.0 12.0 0.00 0.00 0.00 89 1017.3
20260502010402 51 6 1.0 12.0 0.00 0.00 0.00 89 1017.3